Theta_e
302 302 303 304 307 311 313 314 316 317 321 322 322 322 323 323 322 322 323 324 324 323 320 320 320 318 318 319 319 319 323 323 323 324 326 328 330 332 332 332 332 331 330 330 329 325 326 324 322 318 317 314 312 310 309 307 305 302 301 299 297 295 295 295 294 292 290 288 288 288 288 289 291 289 288 287 286 285 285 285 286 286 285 286 285
302 301 301 302 303 306 308 310 312 313 316 320 321 321 322 322 321 322 322 322 323 324 323 322 322 322 321 321 320 316 318 321 322 321 324 324 325 328 329 331 331 331 328 330 328 328 327 324 322 319 317 315 314 312 310 307 304 301 300 298 298 296 293 294 293 292 290 287 285 285 287 288 289 289 288 287 286 286 286 285 285 285 285 285 285
298 300 302 302 303 303 305 307 311 315 315 318 320 320 320 320 321 321 321 322 322 323 322 322 322 321 320 316 319 312 312 317 320 317 317 321 322 323 325 327 328 329 330 328 329 328 327 325 322 320 317 316 313 311 309 306 304 301 299 298 296 296 295 294 293 293 290 289 288 286 285 284 287 287 288 288 289 288 287 285 285 284 285 285 285
299 300 301 302 302 303 302 304 307 311 311 311 313 316 318 318 319 319 320 321 321 321 319 321 319 314 313 311 313 315 312 310 314 312 316 317 319 320 321 324 326 327 327 327 327 328 328 325 322 320 318 316 315 311 308 306 304 302 300 299 297 293 294 293 295 296 295 290 287 288 286 286 284 284 284 287 288 288 288 287 286 284 284 284 284
299 299 300 300 301 302 303 304 304 307 309 310 311 314 317 317 317 318 318 319 319 317 316 314 313 311 310 309 308 308 308 310 309 310 315 317 318 319 320 319 323 326 327 327 324 325 326 325 323 320 318 316 315 312 309 307 304 303 301 299 297 296 293 293 293 295 293 295 292 286 284 286 286 284 283 284 286 286 286 286 287 285 284 284 283
299 300 302 302 303 302 301 301 302 304 307 309 310 311 312 313 314 314 314 316 316 314 314 313 313 313 311 311 310 310 311 309 313 315 314 315 318 318 317 317 318 319 324 326 326 324 325 325 323 321 319 317 315 314 311 308 305 302 301 300 298 299 296 293 292 293 294 293 295 295 291 290 287 282 284 281 285 286 286 287 287 286 284 284 283
298 299 299 301 300 300 301 301 302 303 305 305 306 307 308 310 311 312 313 314 314 312 312 312 312 312 313 314 313 313 313 312 309 308 312 312 313 312 314 312 314 317 317 322 326 324 324 323 322 321 320 318 315 314 310 308 305 303 302 301 300 300 298 294 293 292 294 294 295 296 295 294 289 284 282 282 280 283 285 285 286 286 285 284 284
299 300 299 300 302 302 302 302 302 303 303 303 305 306 307 309 310 311 312 311 312 312 311 312 313 311 311 311 310 310 311 310 307 306 307 308 310 310 311 312 313 314 316 317 320 323 322 322 321 320 319 318 315 315 312 310 307 305 302 302 301 300 299 297 295 295 293 293 296 295 293 291 289 288 287 287 284 281 281 284 285 285 285 285 284
299 299 299 299 301 301 301 301 302 302 302 303 305 306 307 308 309 310 311 311 311 311 311 310 311 311 311 310 308 308 308 306 305 306 307 306 308 306 310 310 312 313 314 314 316 318 317 319 319 319 318 317 313 315 313 311 308 305 302 302 301 300 300 300 298 295 295 296 295 295 295 290 290 290 288 286 283 281 282 282 282 284 284 284 284
299 300 299 299 299 299 300 301 301 302 302 303 304 305 306 306 308 309 309 310 310 310 310 310 309 309 309 309 309 307 305 305 304 305 306 304 307 306 308 310 312 313 312 312 313 315 315 316 317 317 317 316 311 314 313 310 308 306 304 303 302 301 301 300 298 297 297 298 297 296 294 291 290 289 287 286 283 286 282 281 281 282 281 283 284
298 298 298 297 297 298 299 301 301 299 300 302 303 305 305 306 307 308 309 308 309 309 309 309 309 309 310 309 308 307 305 306 304 304 305 303 306 306 307 309 311 312 311 309 311 311 313 313 314 315 315 312 311 313 312 311 309 307 305 303 302 302 301 300 299 298 297 297 297 296 296 293 291 289 287 285 283 282 282 282 282 283 282 281 283
298 297 298 297 298 298 297 299 299 300 300 302 303 304 305 305 306 307 306 307 308 309 309 309 309 309 309 308 308 308 306 307 307 306 305 305 305 306 305 307 308 309 308 307 307 309 311 311 311 312 312 312 311 313 313 311 309 307 305 303 303 303 303 301 300 299 298 297 298 297 297 297 295 293 292 289 288 286 286 282 281 282 281 281 283
297 297 296 295 295 296 296 297 297 299 302 302 303 304 304 304 305 306 306 306 308 308 308 308 308 308 308 307 307 307 306 307 307 306 305 306 305 305 304 306 307 306 306 306 306 307 308 309 309 311 311 311 311 312 312 310 309 307 305 303 303 302 303 302 301 301 300 298 298 299 298 297 296 294 293 291 289 287 286 281 281 282 280 280 281
295 296 295 295 296 295 295 296 298 299 299 301 301 302 303 304 304 305 306 305 306 307 308 307 307 307 307 307 306 305 306 306 306 307 305 306 306 305 304 306 306 306 305 305 306 304 305 307 308 310 311 311 311 311 311 310 308 307 305 304 303 303 303 302 302 301 301 300 300 299 298 298 297 294 294 292 288 286 284 283 281 280 280 281 281
296 297 298 298 297 296 296 296 296 297 298 299 299 300 301 303 304 304 305 304 305 306 307 307 307 306 305 305 305 305 306 306 306 306 306 305 305 305 304 304 304 304 305 305 304 302 303 304 305 307 308 309 310 310 310 309 308 307 305 304 303 303 303 302 302 301 300 300 300 299 298 297 297 294 293 293 290 289 287 284 282 280 279 280 280
297 297 298 298 297 297 296 296 296 296 298 298 299 301 302 303 303 304 305 305 304 305 305 306 305 305 304 304 304 304 304 304 304 304 304 305 305 306 304 304 304 303 304 303 303 302 302 302 302 304 305 306 306 308 308 307 306 306 304 303 302 303 302 301 301 300 300 299 299 297 296 296 295 293 292 293 290 289 287 286 285 284 281 278 278
296 298 299 299 296 297 298 297 297 296 298 299 300 301 302 303 303 303 303 303 303 304 305 304 304 303 303 303 303 302 303 303 304 304 304 303 305 305 305 304 304 303 303 303 303 302 302 302 302 302 303 303 303 304 306 305 305 304 303 302 302 300 300 300 299 298 298 296 294 293 294 293 290 289 289 289 289 287 287 287 286 285 285 281 277
297 297 296 296 296 298 299 298 298 298 299 299 300 300 302 303 302 303 302 303 303 303 303 303 303 302 302 302 303 303 304 303 303 303 303 302 302 303 304 304 304 303 302 302 302 301 300 298 300 300 299 300 301 301 301 302 302 302 301 301 301 299 299 295 295 296 293 292 291 290 290 290 287 288 288 288 287 287 286 285 285 284 285 283 280
296 296 296 297 297 297 298 299 299 298 299 300 300 301 301 301 301 302 303 303 303 303 302 302 303 304 303 302 302 302 303 303 302 302 302 302 302 302 302 304 303 303 301 300 300 298 297 295 295 295 295 296 296 297 298 299 299 300 298 297 296 296 296 294 293 293 291 291 290 289 288 288 286 287 285 285 285 286 285 284 282 282 283 283 281
296 295 295 295 297 297 297 298 298 298 298 298 298 299 300 301 301 301 300 300 300 301 301 302 302 302 302 301 301 302 302 302 302 302 302 302 302 301 300 301 303 303 302 300 299 297 296 295 294 294 293 293 293 293 293 294 294 295 295 295 293 294 294 293 291 290 291 290 289 288 287 286 285 285 284 283 283 283 283 282 282 282 281 282 282
296 296 295 295 295 294 294 294 294 294 294 295 298 299 300 299 300 301 301 301 301 302 301 302 301 301 300 300 300 299 299 300 299 300 302 301 301 300 300 301 299 299 299 298 297 296 295 295 294 293 293 293 293 292 292 292 293 293 292 293 292 293 293 291 290 289 288 289 289 287 286 285 285 285 284 284 284 284 282 281 281 281 280 280 281
294 295 295 295 294 293 293 293 292 293 293 294 297 297 297 299 301 300 300 301 301 301 302 302 301 301 299 299 298 297 298 297 297 297 298 298 297 298 298 298 295 296 296 296 295 295 294 294 293 292 292 291 292 292 291 291 291 291 291 293 292 292 292 290 290 289 288 288 287 286 285 284 285 285 284 284 283 282 281 280 280 280 280 280 279
297 296 295 295 294 294 293 293 293 294 294 292 293 296 298 298 298 298 299 299 300 301 301 300 300 299 298 297 296 295 296 294 295 294 293 293 293 292 295 297 297 295 295 296 295 294 293 292 292 291 291 290 291 290 290 291 291 292 291 291 291 291 291 290 289 289 288 287 286 286 285 284 284 283 283 283 282 280 280 280 279 280 279 279 278
295 296 295 296 291 292 293 294 292 292 291 294 296 295 296 297 297 297 298 298 297 298 298 298 298 297 296 294 295 294 293 293 293 293 293 292 291 291 291 294 295 295 294 293 294 293 292 291 291 290 290 290 290 290 290 291 291 292 291 291 290 291 291 290 290 289 287 287 286 285 284 283 283 283 281 281 281 280 280 279 279 279 279 279 279
296 295 294 294 292 292 294 293 292 292 292 293 295 296 296 296 296 297 298 297 297 296 296 297 295 295 293 293 292 292 292 292 292 291 291 291 290 291 290 292 293 294 293 292 291 291 291 290 290 290 289 289 290 290 290 290 291 291 291 290 290 290 290 289 289 288 286 286 286 285 283 283 283 282 281 281 280 280 279 279 279 279 279 279 279
294 293 294 296 296 293 292 291 292 292 293 294 294 295 296 297 297 297 298 297 297 294 296 296 295 294 294 292 292 291 292 292 292 290 290 290 290 290 290 290 293 293 291 291 291 290 290 290 290 289 289 289 289 289 289 290 290 290 290 290 289 289 289 288 288 287 286 286 285 284 283 282 282 281 281 281 280 279 279 279 279 279 279 279 279
295 294 294 292 293 296 298 294 293 293 293 294 294 295 295 296 297 297 298 297 296 295 296 296 294 293 294 293 292 293 292 292 291 291 290 289 289 289 290 290 291 292 291 290 289 289 289 289 289 288 288 288 288 288 289 289 289 289 289 289 288 288 288 287 287 286 285 285 284 283 282 282 281 281 280 280 280 280 280 279 280 279 280 280 279
294 293 293 296 298 297 293 295 295 295 294 294 294 295 295 295 296 296 296 296 297 296 296 295 294 294 294 294 294 292 291 291 291 290 290 290 289 289 289 289 288 290 290 290 289 289 288 288 288 288 287 287 287 287 287 288 288 288 288 288 288 287 286 286 285 284 284 283 283 282 281 281 281 281 280 281 281 280 280 280 280 280 280 280 279
292 293 295 296 296 294 294 295 296 295 294 294 294 294 293 294 295 295 295 296 295 295 296 296 295 295 296 296 293 291 290 290 290 290 290 290 289 289 288 287 287 288 289 289 288 288 287 287 286 286 286 286 286 286 287 287 287 287 287 287 286 286 285 284 283 282 282 282 281 281 281 280 281 282 283 283 283 283 281 280 280 281 280 280 280
295 297 298 296 296 295 295 295 293 294 295 295 294 294 294 295 295 294 294 295 293 295 296 295 296 297 297 295 292 291 291 289 290 290 290 289 289 288 287 286 286 287 287 287 287 287 287 286 286 285 285 285 285 286 286 288 288 287 286 286 286 285 284 283 282 281 280 280 280 280 280 282 282 283 283 284 285 285 284 283 281 281 281 280 280
297 297 296 297 296 295 294 294 294 294 295 296 297 296 295 294 294 294 294 294 293 294 294 294 295 296 295 292 291 291 290 290 290 289 289 288 288 287 286 286 286 286 286 286 287 286 286 286 286 285 285 285 285 285 286 289 290 289 287 286 285 284 284 283 282 280 279 279 279 279 280 282 283 283 283 285 285 285 285 285 284 284 284 282 280
298 298 297 296 295 294 294 295 296 296 295 294 296 297 294 294 295 294 294 291 291 293 295 295 295 295 293 292 291 291 290 290 289 289 288 288 287 286 286 285 285 284 284 285 286 286 286 285 285 285 285 285 285 286 288 289 290 289 288 285 285 284 283 282 281 280 279 279 279 280 282 282 282 283 283 284 285 285 285 285 285 285 285 284 284
296 296 296 296 296 296 295 295 294 295 296 296 295 294 294 296 295 295 290 290 292 293 294 294 294 293 292 290 289 290 290 289 288 288 288 287 287 286 285 284 284 284 283 284 285 285 285 285 285 284 284 284 284 287 289 289 290 290 289 286 284 283 283 282 280 280 279 279 280 281 281 282 283 284 284 284 284 284 285 285 285 285 285 286 286
295 295 295 295 296 296 296 294 294 295 295 295 293 295 297 296 294 290 290 291 291 292 292 293 292 291 290 289 289 289 289 289 287 287 287 286 286 286 285 284 284 283 283 284 285 285 284 284 284 284 284 283 283 286 289 289 289 289 289 287 283 283 282 281 280 280 280 280 281 281 281 281 282 283 283 283 283 283 283 283 283 283 283 284 285
295 296 296 295 294 294 294 295 295 295 293 291 293 292 292 291 291 290 290 291 291 291 291 291 291 290 289 289 289 289 289 288 287 287 286 286 286 285 283 283 283 283 284 284 284 284 284 284 284 283 282 282 282 287 289 289 290 290 289 286 283 282 282 281 280 280 280 281 282 282 282 282 282 282 282 283 283 283 283 282 282 282 282 282 282
294 293 294 294 294 294 293 294 293 291 292 290 293 290 289 291 288 289 288 289 289 289 290 289 290 289 289 289 289 288 288 286 286 285 285 284 284 283 283 282 282 283 284 285 284 285 284 284 284 283 282 281 283 288 289 289 290 290 289 284 282 282 281 280 279 279 280 281 282 282 282 281 281 281 283 285 284 282 281 280 280 280 280 280 280
292 291 293 293 291 291 291 289 290 289 290 292 290 286 288 287 287 288 286 287 287 289 289 289 289 289 289 288 288 288 287 286 286 285 284 283 283 282 282 282 282 283 284 284 284 284 284 283 283 283 282 281 283 287 288 289 290 290 287 282 282 281 280 279 279 279 280 281 281 282 282 281 281 281 284 285 285 283 280 279 279 278 278 278 278
290 289 289 290 290 289 289 288 288 290 289 288 286 286 287 287 286 285 285 286 286 288 289 288 288 288 288 287 287 287 287 285 284 285 284 283 282 282 282 283 283 283 283 284 284 283 283 283 282 282 282 281 283 285 288 289 289 288 284 282 281 280 279 279 278 279 279 280 281 282 282 281 281 281 285 286 286 283 280 279 278 277 277 277 277
289 288 289 289 289 287 287 288 288 289 289 286 285 285 286 288 286 285 284 286 287 288 287 287 287 286 286 287 287 287 286 285 284 284 284 283 282 282 282 283 284 285 284 284 283 283 282 282 282 282 282 282 283 285 287 288 288 287 284 282 281 279 279 278 278 278 279 280 281 282 282 282 282 282 286 287 286 283 280 280 279 278 277 276 276
291 290 288 286 285 285 287 288 288 288 285 284 283 285 285 287 286 283 285 287 288 287 286 285 284 285 285 285 286 286 285 285 284 283 283 283 282 281 282 283 284 284 283 283 282 282 281 281 281 281 282 282 283 284 286 288 288 286 284 281 280 279 278 278 278 278 279 280 280 281 282 284 284 286 287 287 286 284 281 280 280 278 276 276 277
290 291 289 288 287 285 286 286 287 285 283 282 283 284 286 285 284 283 286 287 286 284 283 284 284 284 283 284 284 285 284 283 284 283 282 281 282 282 282 283 283 283 282 281 281 281 280 280 280 281 281 282 283 284 285 288 287 286 285 282 280 280 279 279 279 279 279 279 279 280 281 285 286 287 287 287 287 285 283 280 279 278 278 279 280
288 288 287 287 287 286 286 286 284 282 282 282 282 284 285 285 284 285 287 284 282 282 282 282 282 282 282 282 282 281 283 283 281 281 281 280 281 282 283 283 282 282 281 280 280 279 279 279 279 279 280 281 283 284 285 286 286 285 285 284 281 280 281 280 279 279 280 280 280 280 280 284 286 287 287 287 287 286 284 280 281 283 284 283 280
290 291 291 287 287 287 287 286 285 281 281 281 281 283 284 283 284 286 284 281 281 281 281 280 280 280 280 280 280 281 281 281 281 281 281 280 281 282 283 282 281 281 280 279 279 278 278 278 278 279 280 281 282 284 285 285 285 286 285 284 283 282 284 282 281 280 281 281 281 281 281 284 286 286 286 286 286 286 285 282 285 284 283 281 279
288 287 288 286 286 287 287 286 285 283 280 280 281 283 284 283 284 283 280 281 281 280 280 279 279 278 279 279 279 279 280 280 280 280 280 280 281 282 282 281 281 280 279 278 278 278 277 277 277 277 279 280 282 283 284 284 285 285 285 285 285 285 285 283 283 283 283 282 281 280 282 285 285 286 286 286 286 284 282 284 284 282 281 278 274
289 289 287 285 286 286 286 286 286 283 282 281 280 282 282 283 282 280 279 279 279 278 279 278 277 277 278 277 278 279 279 279 279 280 280 281 281 281 280 281 280 280 279 278 278 278 277 277 277 277 277 279 280 282 283 284 284 285 285 285 285 285 285 286 284 283 283 282 283 284 285 285 286 286 286 285 284 283 284 283 282 280 277 273 271
289 289 289 287 285 284 284 285 286 284 282 281 281 281 282 284 280 280 278 279 279 278 278 277 276 277 277 278 278 277 277 278 279 281 282 282 281 281 280 280 280 279 279 278 277 277 277 277 276 277 277 278 279 281 282 283 284 284 284 285 285 285 285 285 283 283 283 285 285 286 286 285 285 284 280 277 277 279 281 281 280 277 272 271 269
289 290 288 287 285 285 285 285 285 286 280 280 279 280 282 281 279 279 278 278 278 278 278 277 277 277 276 277 278 277 277 277 278 280 281 282 282 281 280 280 279 279 278 278 278 277 277 277 276 276 277 277 278 279 281 282 282 283 284 285 285 284 284 284 283 283 284 284 284 283 282 281 280 280 279 279 279 280 278 276 274 272 270 268 268
288 288 287 285 285 285 285 285 285 285 281 280 279 280 280 279 277 277 277 278 279 279 278 277 277 277 277 278 278 279 278 277 278 280 280 281 281 281 280 280 279 279 278 278 278 277 277 277 276 276 276 277 277 278 279 281 282 282 282 283 283 282 281 281 280 280 280 279 279 281 280 277 277 276 275 273 273 273 273 272 269 269 267 269 271
288 288 286 285 285 285 285 284 284 284 280 279 278 278 276 277 278 276 278 279 279 279 278 277 277 278 278 279 279 279 279 279 279 279 280 281 281 281 281 281 281 281 280 279 279 279 279 279 278 276 276 276 276 277 278 282 280 283 281 282 281 280 280 279 279 280 277 277 276 275 274 274 273 273 272 272 271 270 270 269 267 266 264 263 262
288 286 284 282 282 282 282 283 283 282 279 278 277 277 276 276 277 278 279 280 279 279 278 278 279 279 279 279 279 280 280 280 280 280 280 280 282 283 282 281 280 282 283 283 282 280 280 279 278 277 277 276 276 278 281 283 283 284 284 283 283 282 281 280 281 281 278 275 274 274 274 273 272 272 271 271 270 270 269 267 265 269 264 262 261
287 286 286 285 284 282 281 281 282 281 278 277 277 277 276 277 277 279 280 280 279 279 279 279 280 279 280 280 280 280 280 280 280 280 280 279 279 281 283 283 283 283 283 283 283 282 282 281 279 276 278 281 280 281 283 283 284 284 284 283 283 283 282 282 282 278 275 274 273 272 272 272 272 272 271 271 270 269 268 266 263 262 261 263 261
Wind_Speed
10 9 9 11 12 12 11 9 10 9 9 11 12 12 12 14 12 13 12 10 10 9 8 9 10 7 6 9 10 8 8 8 8 7 8 8 9 10 10 9 10 10 10 10 9 9 9 9 10 10 10 10 11 13 14 14 12 12 11 9 12 9 5 7 7 8 10 5 5 5 5 4 4 4 4 3 3 3 3 5 3 4 4 5 4
3 4 6 6 8 8 7 8 7 10 10 11 14 15 14 11 13 13 9 11 12 13 12 11 11 12 13 12 9 7 8 9 9 8 9 8 8 7 8 8 10 10 9 9 9 10 9 9 10 11 11 10 11 11 11 11 11 9 10 8 4 10 9 10 9 9 3 7 8 4 2 3 3 4 4 3 3 3 3 4 3 4 5 4 4
6 7 6 8 10 9 9 9 9 14 13 13 13 11 10 10 11 10 11 12 12 12 11 12 11 8 9 6 8 5 3 6 6 6 5 7 7 7 7 7 8 9 11 12 10 10 11 11 11 10 11 10 9 6 6 7 9 12 13 13 10 5 5 8 11 8 5 3 4 7 3 3 1 1 0 2 4 4 3 4 3 4 5 4 5
9 9 9 8 9 9 8 8 10 7 7 6 6 9 9 9 9 10 11 11 10 10 11 8 6 4 3 3 4 5 5 4 4 4 6 6 8 8 8 7 7 8 8 9 10 13 14 11 9 10 11 11 12 12 11 11 10 8 9 10 13 11 7 10 10 8 5 12 6 3 4 3 1 8 6 2 3 5 5 4 4 4 4 4 4
10 9 7 5 7 9 12 11 7 8 8 10 10 11 10 12 11 10 9 10 8 7 7 5 5 4 4 3 3 3 3 5 5 5 7 8 8 8 10 7 7 8 8 9 8 8 9 10 11 11 11 11 10 10 12 13 14 15 16 13 13 14 11 9 10 10 10 10 6 7 2 1 7 3 8 1 2 3 3 5 4 4 4 5 5
9 10 10 10 11 8 6 5 7 8 9 9 9 9 7 8 7 7 7 7 8 7 7 7 8 8 8 8 8 8 9 7 12 14 11 11 13 7 6 7 7 6 7 10 10 10 10 10 11 11 12 11 11 10 11 11 13 12 13 13 15 13 15 12 12 12 11 14 9 2 6 8 8 6 9 6 2 3 4 5 6 5 4 4 4
4 3 2 4 5 5 6 7 8 9 8 5 5 6 6 6 7 8 8 8 7 7 8 8 8 8 11 11 10 11 12 10 5 3 7 6 4 7 7 6 7 7 6 8 13 12 11 11 11 12 12 12 11 10 10 12 12 13 12 13 14 12 10 12 15 14 8 11 9 5 3 1 10 12 6 6 3 3 3 4 5 6 6 5 5
6 7 4 5 8 10 12 10 7 9 6 5 6 5 7 8 8 8 7 8 7 8 9 10 10 9 9 9 9 9 10 9 6 4 4 6 6 6 6 7 6 6 7 7 9 14 13 12 12 12 12 12 12 12 12 11 11 10 13 14 12 11 13 14 14 12 16 12 7 7 3 1 6 3 9 11 6 8 7 2 2 6 5 6 6
6 5 5 6 7 8 6 7 7 5 6 7 7 7 7 7 8 7 8 8 8 9 10 9 9 10 10 9 9 8 7 6 4 4 5 5 6 5 7 7 8 7 7 7 7 8 10 12 12 12 12 13 12 11 11 12 14 14 13 11 11 11 11 9 8 13 13 11 9 6 2 2 2 2 5 4 5 6 3 9 7 1 2 5 6
1 4 3 4 5 5 6 5 5 7 6 6 5 5 6 6 7 8 8 8 8 9 9 10 9 10 10 10 12 9 6 5 5 6 6 5 7 7 7 7 8 8 8 7 7 8 9 9 11 12 11 10 10 11 11 12 12 11 14 16 16 15 10 10 13 11 11 9 10 11 9 4 3 1 3 4 3 2 8 11 9 12 10 7 5
1 1 1 2 0 2 4 6 6 5 5 5 6 6 6 7 7 8 8 7 8 10 10 11 10 10 11 11 12 10 9 8 7 7 6 6 8 7 8 8 7 9 8 8 8 7 8 10 10 10 9 10 11 12 12 12 12 13 13 12 11 14 12 12 11 11 11 11 10 9 11 12 12 11 11 8 6 4 4 5 7 10 11 6 8
1 1 0 0 1 1 3 5 5 6 5 6 6 6 6 7 7 8 7 8 8 9 10 11 11 11 10 11 12 11 10 9 11 10 9 10 10 9 7 6 7 7 7 7 8 8 8 8 8 8 9 9 10 10 11 11 11 11 11 11 11 11 10 10 11 11 13 10 11 10 11 10 8 7 8 10 10 7 8 8 9 5 1 4 1
2 1 1 3 4 4 4 5 4 5 7 6 7 6 6 6 7 9 8 7 9 9 11 10 10 11 11 10 10 9 10 10 10 10 8 9 9 8 7 8 6 7 7 9 9 8 7 7 8 9 9 9 9 10 10 11 11 11 12 12 12 13 13 13 12 14 13 12 12 11 9 9 9 5 4 8 4 5 7 6 2 4 3 4 3
3 4 5 5 5 5 4 4 5 5 5 5 5 5 5 6 7 8 9 8 8 9 10 11 11 10 9 9 9 8 9 9 9 9 8 8 8 9 9 9 9 10 8 9 7 7 7 7 8 8 8 8 9 10 10 11 12 12 12 12 13 13 12 13 13 12 11 12 9 8 9 10 9 7 7 7 8 8 6 10 9 3 2 4 1
5 5 5 6 6 5 6 5 5 4 4 4 4 5 5 6 7 9 9 9 9 10 8 10 9 8 8 8 8 8 9 8 8 8 8 8 8 9 9 8 9 8 8 7 5 7 7 6 6 7 7 8 9 9 10 11 11 11 10 12 11 10 11 11 11 11 11 12 11 11 10 8 9 8 8 8 8 9 10 10 12 10 3 3 3
3 4 5 6 6 5 6 6 6 5 5 5 5 6 6 7 7 9 11 9 9 9 9 9 8 7 7 8 9 8 7 7 6 6 7 7 8 9 9 9 8 8 7 8 8 8 8 8 7 8 7 6 7 9 9 9 9 10 9 9 10 8 10 12 11 10 11 10 9 6 6 9 9 8 7 7 8 7 6 8 10 11 12 5 3
3 5 7 7 4 5 6 6 6 6 6 8 8 7 8 8 8 8 8 6 7 8 8 7 7 7 8 7 7 8 9 9 9 9 8 7 8 8 9 9 9 8 8 8 9 9 9 9 9 9 8 6 6 6 7 7 8 8 9 9 10 8 9 11 9 9 8 7 6 8 9 8 8 7 7 6 7 5 5 8 8 10 8 8 6
6 5 5 5 5 5 6 6 6 8 8 8 8 7 7 7 7 8 7 9 8 7 8 7 8 8 9 10 9 10 10 9 8 8 7 6 6 7 6 8 9 8 8 8 8 9 9 9 8 8 6 5 6 5 5 6 7 8 8 9 9 7 8 5 6 7 7 6 6 7 7 8 5 6 7 7 8 8 8 10 8 6 8 10 7
4 5 5 5 5 7 7 8 8 7 7 8 7 7 6 6 6 7 9 9 8 7 7 7 9 9 9 10 10 9 8 8 8 7 7 8 8 7 7 7 6 7 8 7 7 7 8 8 7 6 6 6 5 5 5 6 6 6 7 7 6 7 7 7 6 7 7 8 8 8 6 7 6 5 5 5 7 7 9 7 6 5 5 8 10
2 3 4 5 6 6 7 7 7 8 7 6 5 5 7 7 6 7 6 6 6 8 8 10 9 9 9 8 9 9 9 9 9 9 9 9 8 7 6 5 7 7 7 8 8 8 8 9 8 8 7 6 6 5 5 5 5 5 6 6 6 7 7 7 6 4 7 8 9 9 9 8 7 7 6 5 3 2 5 6 6 5 4 6 7
2 2 2 3 4 5 5 5 5 4 4 4 5 8 7 6 7 8 9 9 9 9 9 10 8 10 9 11 10 8 8 7 7 8 9 8 7 7 7 6 5 7 7 7 8 8 8 8 8 8 8 8 7 6 5 5 6 6 5 5 5 6 8 6 6 5 4 8 9 10 9 7 7 9 7 6 6 5 4 4 4 6 6 5 6
4 4 5 4 3 3 2 1 1 3 4 5 6 5 6 8 8 7 7 9 9 9 10 9 8 9 10 10 9 6 7 6 7 7 7 7 6 7 7 6 6 6 7 8 8 7 7 8 8 8 7 6 6 6 6 6 6 6 5 6 6 7 7 7 7 8 7 6 7 8 7 7 6 9 8 6 6 8 7 6 4 7 7 5 3
5 5 5 4 2 3 5 5 4 6 6 6 5 6 7 7 7 7 8 9 8 8 7 7 8 8 9 7 7 7 7 7 8 7 7 7 6 6 6 7 7 6 6 7 8 8 8 8 7 7 7 7 7 7 6 7 7 7 7 6 7 8 9 10 10 10 10 8 8 8 8 7 6 8 7 6 5 7 6 7 5 5 8 6 4
6 6 6 7 4 1 3 2 3 5 5 7 7 6 6 6 6 6 9 8 6 6 6 5 6 7 7 7 8 7 8 8 9 8 8 7 7 6 6 7 7 6 7 5 6 7 7 7 7 7 7 7 7 7 7 8 8 8 8 8 8 8 7 8 9 9 10 10 10 9 8 8 7 8 8 7 6 7 7 6 6 4 8 7 5
7 7 5 7 5 5 5 5 5 5 5 6 7 8 7 8 7 8 9 7 7 5 6 6 6 7 7 8 8 7 9 9 9 8 8 7 7 7 6 7 6 6 6 6 5 5 7 7 8 8 9 8 9 8 8 8 7 7 8 7 8 7 7 8 8 9 10 11 10 11 11 9 9 9 6 7 7 8 7 7 7 6 7 6 5
7 5 4 4 5 6 7 7 5 5 6 6 7 8 8 8 10 9 8 7 7 5 6 6 6 7 8 9 9 8 10 11 9 8 9 8 7 7 7 6 7 8 6 6 7 6 7 8 8 8 8 8 7 8 9 9 8 7 7 7 6 7 7 7 7 8 10 10 11 11 11 12 12 13 11 9 8 9 7 8 8 7 7 7 7
7 6 6 5 6 10 11 6 5 6 6 7 7 8 8 8 9 9 10 9 8 7 7 7 7 7 8 10 10 11 10 9 9 8 7 7 7 7 7 8 7 8 8 7 6 7 6 7 8 7 8 8 8 8 7 7 7 7 8 8 8 7 7 7 8 9 9 9 9 11 12 12 12 12 13 12 10 10 8 8 9 9 7 8 7
6 6 7 9 12 9 6 7 7 8 8 7 8 8 8 9 10 8 7 7 9 11 10 9 8 9 10 12 12 9 8 9 8 7 8 8 8 7 7 6 6 7 8 8 8 8 7 7 7 7 7 7 7 7 7 7 7 8 8 8 8 8 8 7 6 8 9 9 9 10 11 11 11 10 11 10 11 11 9 9 7 8 8 8 6
6 9 11 11 8 7 7 8 9 7 7 9 8 8 7 8 9 8 8 11 8 6 9 11 11 12 14 13 8 7 7 7 7 8 8 8 8 7 7 7 6 6 6 7 7 8 8 7 6 7 7 7 7 7 7 8 9 8 8 8 8 9 9 9 8 8 8 8 9 9 10 9 10 11 13 12 10 10 10 9 7 7 7 7 6
11 13 12 9 8 8 8 8 8 8 9 8 8 8 10 10 11 9 9 10 7 10 10 9 11 14 14 10 8 7 8 7 8 9 9 8 8 8 8 7 7 7 7 6 6 7 7 8 8 7 6 6 7 6 9 14 11 9 9 8 8 8 9 9 9 9 8 8 10 9 9 11 12 14 14 13 11 11 9 11 11 9 9 8 7
13 11 10 10 8 8 8 8 8 8 10 10 9 9 7 8 9 9 10 10 8 9 10 10 12 13 9 6 8 9 8 9 9 8 8 8 8 7 8 7 7 7 7 7 7 8 7 7 8 8 8 7 7 6 12 11 12 12 9 8 9 8 8 9 9 10 10 9 8 9 9 11 13 14 14 16 13 12 10 10 13 12 10 12 9
13 11 9 9 8 8 7 8 9 9 8 8 9 9 7 9 9 9 10 5 7 10 12 13 14 12 9 9 9 7 8 8 7 9 8 8 7 8 8 8 8 8 6 6 8 8 8 7 7 7 8 8 7 8 12 13 13 14 11 9 8 8 8 9 9 10 10 10 10 9 8 8 9 11 10 11 12 13 13 13 13 12 10 8 8
8 8 10 10 9 8 7 8 7 8 8 9 8 6 8 11 10 11 3 6 9 10 10 11 10 8 7 6 5 7 8 7 8 7 7 7 8 8 8 8 9 7 6 8 8 8 8 7 8 8 8 8 6 10 13 16 15 15 14 12 7 9 9 8 10 10 11 11 10 10 9 7 8 13 11 9 9 9 10 12 11 10 9 8 7
9 10 9 8 8 8 8 6 6 8 8 8 6 7 10 9 8 3 6 9 9 9 10 11 9 8 7 7 7 8 9 9 8 8 8 9 9 10 9 8 7 7 8 7 6 8 7 8 8 8 7 6 7 11 16 15 14 16 15 11 7 8 8 10 11 11 11 12 13 13 11 10 9 9 8 9 8 8 8 7 6 5 4 5 6
9 10 9 7 6 6 7 8 7 6 6 5 7 6 7 5 5 6 6 7 8 9 9 9 9 7 6 8 9 10 9 8 8 9 9 10 10 8 8 8 8 9 9 9 9 8 7 7 6 5 6 6 6 12 15 16 16 15 14 10 7 7 8 8 10 11 12 12 12 12 13 13 12 10 9 10 10 9 8 7 6 5 4 3 2
6 5 7 7 7 6 6 8 7 6 7 5 6 5 4 7 2 5 5 6 6 7 8 7 9 9 9 9 8 8 6 5 6 6 7 7 6 8 9 7 6 6 5 4 4 4 6 6 6 6 5 5 5 12 15 17 18 16 15 8 8 8 8 8 8 9 9 8 9 10 11 11 11 10 12 17 13 9 9 9 7 5 4 3 2
6 5 7 7 6 6 7 6 7 6 6 7 6 4 4 4 3 5 4 5 5 8 9 9 9 8 8 7 7 8 8 8 8 9 9 8 8 7 6 6 7 6 7 6 7 6 6 7 7 6 7 5 5 10 13 14 16 15 11 7 8 8 8 8 8 9 9 9 8 9 10 11 10 9 15 17 16 13 8 9 8 6 5 4 2
6 6 6 8 8 8 7 5 8 10 7 6 5 4 3 4 5 4 4 5 5 9 7 6 7 6 7 6 7 8 8 8 8 9 9 7 6 5 7 7 8 8 7 7 6 5 5 5 7 7 7 7 6 8 12 13 14 14 10 8 7 8 8 9 8 8 8 8 9 12 11 11 10 9 16 16 16 11 8 8 8 7 6 4 2
5 6 7 7 8 6 8 9 7 10 10 7 6 4 4 6 5 5 4 6 8 8 6 8 7 5 5 6 6 7 8 8 9 9 8 9 9 9 7 7 6 6 6 6 6 6 5 5 5 6 8 8 6 8 14 14 14 15 12 9 9 8 9 8 9 8 7 7 7 7 9 9 9 11 18 16 15 9 8 7 7 7 6 4 3
8 7 5 5 5 6 8 8 8 9 6 6 5 4 5 6 7 4 6 8 9 8 6 5 4 5 5 6 6 7 7 8 8 7 7 7 7 7 7 7 6 6 6 6 6 6 7 5 5 6 6 6 7 6 9 15 13 15 13 9 8 10 10 10 9 10 9 6 7 7 7 11 12 15 16 16 14 11 7 7 6 6 6 4 4
9 10 9 7 6 4 7 8 8 7 5 4 4 4 6 6 6 5 9 9 6 4 4 5 5 5 5 6 6 7 8 6 7 8 7 6 7 8 7 7 7 6 6 6 6 6 6 5 4 4 5 4 5 6 8 12 13 14 14 11 7 8 9 10 9 10 10 9 7 6 5 10 12 14 14 15 15 13 9 6 6 5 5 4 6
5 7 5 6 8 8 8 8 5 6 4 4 3 5 7 6 6 9 10 5 4 4 4 4 4 5 5 5 5 4 6 7 6 8 8 7 6 7 8 8 7 8 9 8 7 6 6 5 4 4 4 4 4 8 6 12 14 15 15 13 8 8 10 11 10 9 9 9 8 7 6 10 14 14 14 14 14 13 12 6 6 8 8 9 8
12 14 12 8 9 10 10 10 8 4 4 3 2 6 8 6 9 10 5 4 3 3 3 3 4 4 4 5 5 6 6 6 7 8 9 8 7 8 8 8 9 8 9 8 7 7 7 6 5 4 4 4 5 6 10 9 14 15 16 15 13 10 15 11 11 10 10 9 7 7 7 12 14 14 14 14 13 13 10 6 10 10 13 14 8
6 5 7 8 10 11 11 9 9 7 4 3 3 7 8 7 12 5 2 1 1 2 2 3 3 4 4 4 5 5 5 6 8 8 8 9 8 8 8 7 8 8 8 8 6 6 7 7 7 5 4 4 4 5 8 10 11 15 15 15 16 17 15 10 10 9 8 8 8 7 9 15 15 15 14 13 13 11 8 12 11 14 13 10 7
12 11 8 6 8 11 13 13 11 7 6 5 4 6 8 9 7 2 4 4 3 3 4 4 4 4 4 4 4 5 6 6 7 9 9 8 8 9 8 6 7 7 7 8 7 7 7 7 7 6 6 5 5 5 6 9 13 14 15 15 15 17 16 13 9 7 8 7 10 14 16 16 16 15 16 15 11 11 13 13 14 14 10 6 7
12 11 9 7 8 9 10 12 15 8 7 5 5 5 9 9 3 3 4 4 4 4 4 4 4 4 4 5 6 4 5 6 6 6 8 8 9 8 8 8 7 7 7 8 8 8 7 7 7 7 6 5 5 5 6 7 9 10 10 14 15 15 13 10 10 9 12 16 18 18 20 19 16 12 9 6 6 7 13 14 14 11 6 7 5
14 15 12 11 8 10 12 12 14 12 5 6 5 6 8 6 4 3 3 4 4 4 4 3 4 4 4 5 7 6 5 5 4 5 5 6 6 6 7 8 8 9 9 8 8 9 9 8 7 7 6 6 6 6 7 7 7 8 8 10 12 11 14 14 10 11 13 12 15 13 10 10 9 12 11 9 8 8 8 7 7 6 6 6 6
10 12 11 10 11 11 13 13 13 12 5 6 6 7 7 5 4 3 4 4 4 5 6 5 5 4 5 6 7 8 9 7 6 6 6 5 5 6 7 8 9 9 9 8 8 8 9 10 9 8 8 7 6 6 8 9 9 8 8 8 8 9 9 9 10 9 9 10 10 10 11 7 7 7 7 5 5 5 6 7 5 5 5 6 7
12 12 10 11 11 13 14 13 14 10 7 7 7 6 5 4 4 4 4 5 5 4 4 5 5 5 6 5 7 7 8 8 8 7 6 7 8 8 7 5 2 4 6 10 11 9 8 8 9 11 11 9 7 9 8 8 8 12 10 10 9 9 9 8 11 14 10 8 8 8 7 7 7 7 6 6 6 6 6 5 5 5 6 6 4
11 8 8 9 10 11 13 15 13 10 7 7 7 6 4 4 4 4 5 7 6 5 5 6 6 6 6 6 6 7 7 8 8 8 7 5 5 5 4 6 6 6 6 3 4 7 8 8 9 7 8 11 12 9 11 16 17 17 17 15 13 14 12 12 16 19 11 9 8 8 7 8 7 7 8 7 7 6 6 6 5 5 6 5 4
13 13 14 12 11 9 9 13 14 9 8 7 7 6 5 5 5 5 6 7 7 7 6 6 6 6 7 6 7 7 7 7 7 7 7 8 7 5 7 7 6 8 8 9 9 9 10 9 8 8 5 6 9 14 18 17 18 18 18 17 17 16 18 19 19 13 8 8 8 8 7 7 7 7 7 7 7 7 6 6 6 5 3 5 5
Wind_Direction
230 215 209 206 202 200 197 188 191 190 189 188 189 191 189 189 183 193 194 184 183 184 184 182 186 189 196 200 203 189 191 187 187 188 188 192 189 188 186 186 184 187 191 186 191 188 186 180 178 178 177 175 175 179 178 177 172 167 157 156 153 144 142 149 153 141 126 84 63 70 60 63 87 94 89 87 100 120 117 114 132 112 119 109 117
250 231 230 224 215 205 193 187 178 180 201 190 192 196 195 186 187 194 183 188 192 193 193 193 196 196 193 200 194 177 181 185 194 190 190 186 185 183 186 186 187 189 190 193 192 189 187 184 186 183 179 184 187 185 178 171 162 153 149 140 161 157 161 171 167 142 158 164 146 128 50 49 81 96 111 101 117 126 132 127 144 135 134 131 122
245 239 222 204 206 203 193 193 194 195 193 194 198 192 192 189 194 189 190 191 197 195 190 200 200 198 194 192 183 175 193 193 186 185 178 183 188 185 181 185 187 193 193 191 194 195 193 185 187 184 184 177 171 160 156 162 170 164 166 160 154 160 149 177 177 188 132 123 109 103 171 146 204 82 343 150 139 144 138 147 164 153 156 151 137
239 233 225 210 198 197 195 199 201 192 180 188 191 193 195 198 194 192 194 197 196 197 198 202 190 167 152 134 162 156 176 161 155 148 176 176 193 192 193 185 191 195 194 198 198 192 188 186 184 184 185 183 182 173 170 170 164 169 178 171 157 153 166 191 204 187 148 142 164 190 154 150 152 225 174 197 153 154 152 167 171 176 172 159 136
230 238 241 200 191 199 199 201 182 188 192 190 189 192 194 196 195 191 192 197 198 194 190 160 134 135 122 78 94 87 60 136 148 187 190 188 185 195 199 184 197 209 206 203 200 199 192 182 180 183 182 183 183 177 177 178 178 179 179 173 175 166 173 184 200 203 196 212 147 128 93 231 219 148 135 194 148 162 194 170 182 180 178 175 158
212 219 214 198 196 200 204 190 189 200 200 202 197 197 189 192 189 185 186 190 193 184 174 161 171 166 161 164 173 186 198 182 194 197 190 192 200 187 178 183 188 208 215 209 208 199 199 191 185 182 185 184 188 186 182 178 184 180 183 179 184 186 174 173 191 210 210 217 240 250 174 175 173 175 142 207 121 226 178 190 181 189 182 172 172
262 273 247 191 216 196 205 197 200 199 211 193 194 197 191 186 188 185 186 187 184 177 170 167 174 181 187 193 195 197 201 215 211 179 187 199 170 184 194 189 192 195 213 222 204 199 197 194 191 189 187 187 185 181 182 186 185 184 181 188 190 181 173 185 191 194 202 234 239 271 328 312 140 140 190 94 181 216 202 192 205 194 187 176 182
228 229 214 207 194 191 198 203 197 205 196 183 195 193 190 189 184 188 185 185 186 173 176 178 181 184 188 196 198 204 209 209 194 187 172 168 184 191 188 202 203 202 205 216 219 195 191 193 191 191 190 187 181 187 185 182 187 198 192 191 187 188 187 189 190 183 186 210 215 248 318 14 160 76 149 167 148 164 206 245 265 205 196 196 188
219 233 208 197 201 209 203 198 208 195 188 191 192 194 192 188 187 185 188 186 186 178 176 183 181 182 187 188 202 213 203 200 185 182 174 180 186 192 193 198 206 214 211 212 213 203 187 184 191 193 192 189 183 185 185 185 189 186 188 188 188 194 195 195 173 189 192 199 173 216 206 172 181 42 135 94 140 136 173 184 188 207 261 221 208
230 215 191 184 209 205 202 192 181 201 198 192 193 185 190 186 188 187 194 185 181 178 177 181 180 176 186 195 201 202 193 188 173 192 194 184 198 196 199 198 204 209 217 213 211 207 193 184 190 194 192 186 184 183 181 186 191 195 195 193 191 190 187 177 183 188 199 200 191 190 173 136 133 95 185 155 40 140 161 189 184 174 194 213 186
111 59 18 66 31 173 161 174 198 197 197 187 189 191 189 187 188 191 194 180 177 180 177 183 183 185 193 194 198 197 193 183 183 198 195 198 208 206 204 208 204 211 211 218 213 206 202 192 192 197 194 188 185 183 186 188 191 193 197 202 199 193 190 188 188 196 199 204 200 194 196 186 182 183 187 187 159 151 102 162 172 194 190 175 212
120 75 99 337 97 80 134 174 179 190 184 194 195 190 188 189 182 188 191 185 181 181 182 185 186 193 195 192 198 197 187 192 197 198 194 199 202 208 206 206 211 212 208 220 222 215 205 201 196 191 194 194 195 188 185 188 189 190 189 191 196 203 201 196 200 199 202 205 204 201 205 208 216 205 188 178 182 181 162 161 173 154 116 215 191
160 211 245 260 243 215 188 197 186 187 195 195 196 191 189 186 184 184 197 191 186 182 188 187 189 196 194 194 197 191 195 199 202 204 195 200 198 202 194 207 199 206 210 213 226 215 211 203 197 196 198 200 196 191 190 186 185 188 190 191 195 196 200 198 201 207 203 204 205 206 204 206 216 209 159 180 161 130 134 119 118 149 156 170 215
212 225 225 228 237 250 239 209 209 210 208 203 200 196 193 191 189 190 200 195 189 187 189 191 199 196 193 193 193 188 202 200 207 205 199 200 193 199 198 198 199 205 201 214 213 220 221 216 206 205 201 196 195 197 193 190 186 187 188 192 197 201 201 202 207 208 209 213 207 203 208 206 207 188 182 170 161 149 160 155 146 153 137 156 162
216 217 219 225 234 234 235 231 230 232 227 219 211 206 198 199 195 200 201 202 195 193 189 197 199 196 195 194 193 194 200 203 210 207 202 200 199 199 198 195 199 198 198 204 199 211 223 222 217 212 208 203 201 201 199 193 190 187 189 195 198 198 200 200 207 207 208 209 207 203 206 206 205 192 186 189 169 179 169 157 148 139 94 121 163
234 244 254 250 235 230 230 230 227 219 221 219 214 208 204 207 206 208 206 200 198 194 198 194 197 194 195 196 198 194 199 204 211 212 217 206 204 201 200 198 198 189 191 183 199 200 211 214 216 220 213 208 205 204 198 194 190 185 187 190 198 196 198 200 205 203 210 210 211 207 196 211 202 192 196 185 183 188 166 162 162 159 151 168 167
253 241 243 248 249 239 226 225 224 217 214 214 213 206 206 207 210 216 218 211 203 203 198 194 191 190 202 201 196 196 198 202 205 210 208 207 206 207 201 200 193 188 189 187 192 199 205 209 209 215 216 209 202 203 195 193 187 188 188 190 197 192 193 202 193 195 203 192 187 188 197 193 198 185 188 176 180 171 172 172 175 171 169 143 166
228 247 255 252 242 241 235 228 218 214 212 215 217 209 210 210 211 215 216 214 215 198 198 195 192 196 200 204 205 204 203 204 203 208 206 204 213 210 205 197 198 190 184 185 191 196 201 202 207 210 214 212 210 200 196 193 184 189 191 193 197 181 190 184 188 187 184 172 167 169 172 179 176 173 184 177 173 176 170 179 185 189 161 156 160
232 244 268 274 251 236 227 225 223 221 219 216 212 210 214 216 215 214 218 218 211 202 195 199 197 200 201 203 204 209 208 205 204 200 197 205 208 208 209 203 191 187 183 174 183 189 192 196 197 203 203 208 206 205 195 188 190 192 187 189 185 175 181 188 188 180 175 161 166 172 167 163 158 158 147 158 170 165 174 170 175 165 173 149 154
236 251 248 249 252 243 226 221 221 220 222 220 216 215 218 217 212 218 227 224 215 208 198 201 202 201 205 203 211 208 205 204 201 197 203 204 203 199 201 199 198 187 187 175 180 185 188 193 195 194 197 197 198 203 194 190 185 200 189 186 186 173 181 186 183 180 164 171 164 167 170 163 152 134 128 123 123 127 146 151 157 154 143 148 142
309 287 245 240 248 252 249 238 226 224 216 205 207 211 214 211 218 212 211 216 217 215 204 209 195 206 199 204 206 203 208 204 204 204 207 206 201 197 195 192 175 193 175 180 181 184 185 189 189 194 193 191 193 194 190 178 185 190 187 189 173 176 176 178 161 162 165 167 170 164 164 157 149 140 143 133 131 132 123 124 138 129 125 139 129
278 282 294 291 276 268 253 229 198 180 206 205 215 210 213 212 214 214 217 219 216 218 212 208 205 203 205 207 204 204 203 202 205 209 212 208 202 199 194 177 191 193 180 182 183 182 185 183 184 190 191 191 194 191 180 173 176 177 180 179 176 176 177 168 164 168 165 167 155 150 152 150 155 141 141 144 144 140 139 133 139 128 123 115 121
283 276 278 278 262 226 207 192 183 198 211 218 220 206 217 219 214 216 214 227 218 224 220 212 209 208 211 206 201 204 199 204 205 209 213 209 207 201 186 189 194 189 194 185 181 179 181 181 185 185 182 185 187 185 182 176 181 180 180 185 183 181 177 171 175 177 170 157 153 156 156 151 143 137 142 139 136 135 137 131 136 128 115 114 97
286 291 267 226 229 278 347 284 221 226 224 225 228 223 211 219 222 217 226 228 226 230 228 223 220 220 210 204 208 202 200 203 207 206 208 206 202 201 190 191 191 181 186 190 179 178 174 177 180 180 182 184 185 185 183 188 188 186 184 184 182 186 182 178 177 169 164 163 160 150 155 153 148 140 142 140 141 134 127 124 120 105 104 103 101
292 294 315 338 334 300 271 269 251 241 239 236 234 234 223 213 209 219 230 220 220 216 219 225 221 223 217 212 213 202 205 206 207 200 205 197 198 193 188 189 178 183 186 174 179 172 173 174 180 183 184 188 190 186 186 192 193 191 188 182 181 182 179 177 174 170 167 162 160 160 155 152 149 141 145 148 156 139 138 132 128 120 108 107 96
266 293 305 302 291 281 268 257 257 248 239 237 236 234 237 226 211 209 219 217 219 203 215 216 218 218 223 221 217 208 212 208 204 201 198 194 193 189 187 192 179 183 178 182 176 179 178 183 188 190 188 189 185 186 188 191 188 181 181 179 177 177 176 169 169 169 168 166 161 158 159 159 160 158 161 157 151 140 133 131 127 122 119 115 115
282 262 270 296 298 272 258 277 253 252 243 238 235 235 233 241 241 215 206 202 204 197 209 214 215 218 224 227 218 217 210 207 203 200 193 192 192 190 185 189 187 181 177 180 184 179 187 184 191 185 186 183 185 186 186 182 178 179 179 176 174 175 171 169 170 170 168 164 161 159 162 166 167 163 158 159 150 142 140 139 139 134 132 129 132
257 271 267 249 242 257 287 278 273 259 251 251 242 235 231 226 232 232 232 218 204 192 193 202 207 219 227 230 223 217 211 207 200 195 195 193 189 188 191 188 182 185 181 182 181 183 186 187 185 185 185 178 179 181 179 179 181 181 177 178 174 172 167 164 164 167 165 160 159 161 166 170 169 163 156 153 151 144 141 137 144 134 137 137 142
274 261 254 253 258 264 270 272 266 269 259 248 246 244 240 239 238 231 212 217 210 206 205 200 201 211 222 225 216 215 212 205 198 196 194 192 188 186 186 186 187 189 185 184 182 182 176 181 178 180 178 178 182 187 184 182 181 180 176 173 173 169 167 164 163 162 160 155 156 163 167 168 162 156 155 151 151 146 143 143 153 145 146 145 143
261 257 259 260 255 261 264 268 273 263 262 258 245 239 231 228 234 225 216 223 186 205 208 215 215 220 223 209 200 202 204 197 195 198 195 186 184 182 181 185 189 186 182 177 177 179 180 179 177 180 179 182 190 189 189 185 180 174 171 168 167 172 169 165 158 153 153 157 158 159 162 156 149 150 152 153 153 157 155 151 159 157 154 149 153
257 261 263 260 265 268 272 273 268 266 259 262 261 253 240 235 237 226 220 217 188 203 212 211 222 230 231 205 200 206 193 198 200 191 188 185 182 176 180 184 184 180 178 176 175 180 184 182 183 181 183 190 193 191 185 177 172 165 163 166 168 168 165 157 157 155 156 157 158 156 152 152 151 154 156 153 150 148 150 150 156 163 163 156 153
266 273 277 282 278 269 264 266 270 269 264 261 264 264 265 253 242 231 228 192 189 208 211 215 221 223 213 209 209 196 195 203 190 197 190 186 174 175 180 181 178 178 178 171 181 187 185 184 185 187 189 192 197 187 178 174 171 171 166 167 166 164 164 160 158 158 156 155 153 149 147 152 160 157 150 148 147 151 154 156 160 164 165 159 152
273 275 271 269 267 266 266 268 267 269 274 266 255 264 257 251 246 242 180 177 207 212 219 226 231 226 222 216 200 197 203 199 200 192 186 178 179 179 181 178 184 178 164 178 188 181 188 186 185 187 194 193 193 183 182 183 178 171 167 166 167 162 160 162 160 159 157 155 154 150 148 152 153 150 146 146 145 146 147 149 150 151 154 150 133
277 266 266 276 296 301 296 283 272 272 267 270 263 244 248 245 246 219 182 208 203 216 216 226 225 221 212 201 198 198 202 201 188 185 182 182 182 189 183 178 168 163 172 179 181 186 183 186 187 191 190 188 186 185 186 183 180 173 167 158 160 159 160 159 160 161 162 160 161 156 151 150 152 149 145 146 146 144 146 143 148 152 154 164 159
300 313 318 312 301 300 305 307 299 283 279 291 290 255 263 270 230 220 220 210 214 213 219 223 223 219 203 205 204 203 204 193 186 183 183 186 186 178 172 172 170 171 173 179 181 184 187 185 186 180 176 181 191 188 185 183 183 176 163 149 155 156 157 160 164 167 167 164 162 161 155 152 152 152 158 156 150 154 151 150 149 149 150 149 144
319 311 306 312 313 304 294 292 295 307 302 294 279 288 265 258 233 217 221 221 216 219 226 222 225 215 211 208 202 203 197 184 185 186 186 186 180 173 171 167 163 169 169 161 172 172 176 180 180 172 167 181 192 188 183 184 183 176 161 153 158 158 158 157 155 158 157 155 158 154 148 148 152 155 166 164 159 150 146 144 143 138 135 136 153
309 303 303 303 298 304 304 304 306 303 308 306 300 291 260 266 238 242 220 226 214 226 228 223 225 219 214 204 196 192 191 187 183 181 185 181 173 171 169 160 159 166 166 170 178 178 178 175 175 176 171 174 184 178 169 170 175 158 150 157 157 153 151 152 153 152 149 150 156 156 149 150 152 159 168 167 161 148 138 141 140 140 142 141 173
303 309 307 315 318 320 312 315 313 312 304 297 295 278 257 249 253 253 231 233 225 236 235 231 232 223 213 200 196 190 188 182 178 185 182 177 171 166 168 168 165 164 171 174 166 165 168 170 171 176 174 169 182 181 171 167 159 147 145 150 153 148 150 149 146 148 147 151 158 158 153 151 157 163 171 167 160 144 138 142 141 139 144 150 185
292 290 297 300 302 302 298 313 322 317 316 317 303 292 277 267 262 254 232 235 235 240 231 226 228 213 207 199 193 190 184 179 183 183 174 171 173 173 166 163 165 161 163 153 154 156 155 161 171 167 171 169 175 183 178 175 159 151 149 149 147 147 147 151 147 144 142 144 147 150 149 154 157 165 170 166 158 145 137 148 145 138 143 156 190
319 310 283 271 280 320 319 318 311 299 304 307 314 300 277 272 272 254 245 242 242 235 230 225 216 203 199 192 187 186 183 179 179 169 168 168 154 144 153 153 152 149 147 151 151 151 153 160 162 165 174 173 171 182 181 173 155 152 149 146 149 149 154 152 151 145 140 140 143 146 157 161 156 160 164 163 157 148 139 140 135 134 142 180 190
307 306 315 316 311 294 288 289 290 291 298 311 318 300 281 272 271 264 252 247 249 239 221 214 198 190 190 189 183 182 176 178 171 165 156 149 153 152 148 149 146 141 140 145 147 145 142 144 155 158 159 174 174 172 183 167 149 150 149 144 155 150 147 147 149 150 151 149 150 152 155 157 149 153 159 162 158 148 139 133 139 148 165 182 145
272 274 285 304 313 310 302 296 276 271 285 312 322 294 276 279 274 259 255 261 247 224 203 188 185 185 184 176 173 167 164 157 148 142 144 149 152 149 152 148 146 146 148 146 140 138 135 129 128 139 151 164 171 167 170 159 154 156 157 149 148 156 151 143 144 150 152 153 156 155 155 156 150 155 157 157 157 153 145 137 155 168 187 132 121
329 330 330 333 319 314 308 300 300 281 278 284 296 278 278 277 267 262 277 266 229 201 177 169 164 161 165 163 159 153 147 145 149 152 149 149 148 146 146 144 144 143 143 143 141 141 137 133 129 138 147 156 161 165 163 161 161 160 161 160 149 146 150 146 150 156 160 154 148 149 149 157 155 156 156 155 155 158 155 157 173 151 122 118 117
299 275 284 312 310 306 305 302 299 295 272 261 237 269 272 272 264 280 274 238 193 165 149 144 153 153 146 148 148 144 141 145 148 144 145 145 149 147 144 150 148 146 146 144 145 142 140 143 145 145 146 149 160 158 163 159 162 161 161 159 155 153 156 153 152 153 151 149 146 146 155 161 158 158 156 158 153 140 142 159 145 123 120 113 113
315 312 309 304 297 299 304 304 298 288 274 258 232 247 269 263 264 192 197 183 174 157 152 153 152 152 144 140 133 140 144 143 148 146 145 150 146 148 147 153 148 149 150 150 153 155 155 153 148 151 140 150 157 157 156 161 162 161 158 155 156 157 161 154 146 141 142 144 145 147 152 158 158 157 157 151 136 142 144 139 133 125 120 119 121
310 311 316 305 300 296 294 294 297 289 270 259 244 227 253 259 252 214 199 176 162 157 161 164 157 152 150 143 130 124 131 137 144 151 150 154 154 157 153 154 156 157 156 155 157 159 156 154 158 153 154 151 150 148 154 153 154 155 160 164 163 163 157 136 126 128 134 137 140 143 147 149 149 146 133 125 126 130 135 136 132 123 121 133 142
311 307 315 315 311 302 295 293 291 296 283 268 248 245 245 270 248 221 196 170 165 165 163 162 158 152 144 142 136 135 128 126 130 128 134 144 151 152 153 158 166 163 163 165 165 164 161 158 152 157 150 151 148 150 150 151 152 151 147 146 145 143 133 125 122 131 132 132 136 137 136 129 127 130 130 128 124 129 126 117 116 125 137 137 134
300 300 304 302 300 293 292 292 289 294 296 266 256 252 251 244 227 202 182 170 173 173 170 173 166 160 157 154 144 141 139 139 141 141 142 144 152 160 164 172 175 172 165 169 167 169 169 165 160 157 155 152 158 158 161 157 156 146 142 133 133 134 135 136 132 128 125 127 125 123 121 112 116 109 113 111 113 117 124 131 138 128 118 108 104
307 306 304 297 297 296 290 290 287 291 291 270 258 254 249 228 214 196 181 177 187 182 170 165 166 159 163 164 155 156 153 149 150 147 151 160 165 168 168 170 173 187 187 174 170 172 171 169 162 162 161 164 167 175 176 157 147 148 143 144 142 140 137 134 138 132 120 114 112 113 121 124 130 134 135 142 143 136 134 129 118 106 104 109 116
300 295 287 286 284 282 289 290 288 290 281 267 259 255 246 232 213 199 188 185 184 176 175 179 177 172 168 165 164 162 161 158 154 150 138 109 83 115 144 160 157 141 128 127 169 176 170 162 162 176 177 173 178 166 155 152 148 145 146 143 144 142 139 138 141 135 129 128 134 138 146 147 148 151 153 157 159 156 145 133 135 128 120 107 103
307 312 308 302 294 285 281 284 285 291 279 264 257 248 242 235 222 209 198 192 174 176 183 185 183 184 178 173 170 164 164 155 152 147 142 135 126 98 116 134 144 145 151 156 152 142 146 155 154 157 164 126 127 149 161 158 153 149 149 147 146 145 143 146 140 127 122 138 147 150 154 154 157 157 161 164 161 155 155 144 142 135 132 130 126